Flag for Spain

Past Weather in Madrid, Spain — Yesterday and Last 2 Weeks

Now
86 °F

Passing clouds.


Feels Like: 84 °F
Forecast: 94 / 68 °F
Wind: 9 mph from North

Location: Madrid / Cuatro Vientos

Current Time: Jul 8, 2020 at 11:22:11 am

Latest Report: Jul 8, 2020 at 11:00 am


Visibility: N/A

Pressure: 30.01 "Hg (27.86 "Hg at 658m altitude)

Humidity: 29%

Dew Point: 50 °F

Location of MadridLocation

Past Weather in Madrid — Graph

°F

Madrid Temperature Yesterday

Maximum temperature yesterday: 102 °F (at 5:00 pm)
Minimum temperature yesterday: 72 °F (at 6:00 am)
Average temperature yesterday: 88 °F

High & Low Weather Summary for the Past Weeks

 TemperatureHumidityPressure
High102 °F (Jul 7, 5:00 pm)65% (Jun 26, 3:30 am)30.24 "Hg (Jun 26, 3:30 am)
Low63 °F (Jun 27, 5:00 am)10% (Jun 29, 6:00 pm)29.86 "Hg (Jun 30, 6:00 pm)
Average83 °F32%30.05 "Hg
* Reported Jun 23 10:00 am — Jul 8 10:00 am, Madrid. Weather by CustomWeather, © 2020

Note: Actual official high and low records may vary slightly from our data, if they occured in-between our weather recording intervals... More about our weather records

Madrid Weather History for the Previous 24 Hours

Scroll right to see more
 ConditionsComfort  
Time TempWeatherWind HumidityBarometerVisibility
10:00 am
Wed, Jul 8
82 °FPassing clouds.9 mph32%30.01 "HgN/A
9:30 am79 °FPassing clouds.5 mph37%30.01 "HgN/A
8:30 am77 °FScattered clouds.8 mph39%30.04 "HgN/A
8:00 am75 °FScattered showers. Scattered clouds.15 mph39%30.09 "HgN/A
7:30 am75 °FPassing clouds.8 mph39%30.01 "HgN/A
7:00 am75 °FPassing clouds.2 mph44%29.98 "HgN/A
6:30 am77 °FPassing clouds.5 mph34%30.01 "HgN/A
6:00 am79 °FPassing clouds.5 mph32%30.01 "HgN/A
5:30 am79 °FPassing clouds.6 mph32%30.01 "HgN/A
5:00 am79 °FPassing clouds.6 mph32%29.98 "HgN/A
4:30 am79 °FPassing clouds.6 mph30%29.98 "HgN/A
4:00 am81 °FPassing clouds.3 mph30%29.98 "HgN/A
3:30 am79 °FClear.1 mph28%30.01 "Hg10 mi
3:00 am79 °FPassing clouds.3 mph28%30.01 "HgN/A
2:30 am81 °FClear.2 mph26%30.01 "Hg10 mi
2:00 am82 °FClear.1 mph26%30.01 "Hg10 mi
1:30 am82 °FClear.2 mph26%30.01 "Hg10 mi
1:00 am82 °FPassing clouds.6 mph25%30.01 "HgN/A
12:30 am81 °FClear.8 mph26%30.01 "Hg10 mi
12:00 am81 °FClear.7 mph26%30.01 "Hg10 mi
11:30 pm
Tue, Jul 7
82 °FClear.8 mph25%30.01 "Hg10 mi
11:00 pm84 °FClear.7 mph23%30.01 "Hg10 mi
10:30 pm88 °FClear.8 mph19%30.01 "Hg10 mi
10:00 pm90 °FClear.10 mph20%29.98 "Hg10 mi
9:30 pm93 °FPassing clouds.12 mph15%29.98 "HgN/A
9:00 pm95 °FPassing clouds.14 mph15%29.98 "HgN/A
8:30 pm97 °FPassing clouds.13 mph13%29.98 "HgN/A
8:00 pm99 °FPassing clouds.15 mph12%29.98 "HgN/A
7:30 pm100 °FPassing clouds.12 mph13%29.95 "HgN/A
7:00 pm100 °FPassing clouds.10 mph13%29.98 "HgN/A
6:30 pm100 °FPassing clouds.9 mph13%29.98 "HgN/A
6:00 pm100 °FPassing clouds.14 mph15%29.98 "HgN/A
5:30 pm100 °FPassing clouds.15 mph16%29.98 "HgN/A
5:00 pm102 °FPassing clouds.10 mph13%30.01 "HgN/A
4:30 pm100 °FSunny.8 mph16%30.01 "Hg10 mi
4:00 pm99 °FSunny.7 mph18%30.01 "Hg10 mi
3:30 pm99 °FSunny.7 mph16%30.01 "Hg10 mi
3:00 pm99 °FPassing clouds.7 mph18%30.04 "HgN/A
2:30 pm97 °FSunny.5 mph20%30.04 "Hg10 mi
2:00 pm95 °FSunny.5 mph22%30.04 "Hg10 mi
1:30 pm95 °FSunny.3 mph22%30.07 "Hg10 mi
1:00 pm93 °FSunny.3 mph21%30.07 "Hg10 mi
12:30 pm93 °FSunny.2 mph21%30.07 "Hg10 mi
12:00 pm91 °FSunny.3 mph23%30.07 "Hg10 mi
11:30 am90 °FSunny.3 mph22%30.07 "Hg10 mi
11:00 am88 °FPassing clouds.3 mph24%30.09 "HgN/A
Weather by CustomWeather, © 2020

See weather overview